Tracking 19562 objects as of 22-Mar-2019
HD Live streaming from Space Station
objects crossing your sky now

COSMOS 2489

Track COSMOS 2489 now!
10-day predictions
COSMOS 2489 is classified as:


NORAD ID: 39484
Int'l Code: 2013-076B
Perigee: 1,483.4 km
Apogee: 1,519.6 km
Inclination: 82.5 °
Period: 115.9 minutes
Semi major axis: 7872 km
RCS: Unknown
Launch date: December 25, 2013
Source: Commonwealth of Independent States (former USSR) (CIS)
Launch site: PLESETSK MISSILE AND SPACE COMPLEX (PKMTR)

COSMOS 2488 is a Russian military satellite apparently designed to relay messages between military users posted in remote areas.
aabbcc
Your satellite tracking list
Your tracking list is empty




NASA's NSSDC Master Catalog

Two Line Element Set (TLE):
1 39484U 13076B   19080.75388211 +.00000035 +00000-0 +17724-3 0  9990
2 39484 082.4919 017.2676 0022981 097.1221 263.2473 12.42893974237644
Source of the keplerian elements: AFSPC